Vorticity
4 4 4 3 4 5 5 5 4 4 4 4 4 4 4 4 3 3 3 4 3 3 4 2 4 4 8 8 5 10 4 5 3 5 8 10 9 6 8 10 7 4 6
3 4 4 4 4 3 4 4 4 5 5 5 5 5 4 4 3 3 3 4 2 3 4 4 3 6 7 10 9 10 3 4 3 7 11 10 10 7 8 9 8 4 6
5 3 4 4 4 4 5 5 4 5 5 4 4 5 4 4 4 4 5 3 3 4 5 6 3 9 8 10 9 7 4 2 2 7 11 12 11 8 8 10 11 4 5
5 5 4 3 3 3 3 5 4 4 5 4 5 5 4 4 3 4 5 3 2 4 5 7 3 10 9 8 7 6 4 3 5 8 9 10 9 8 9 10 10 6 8
7 6 5 3 3 4 5 6 3 3 4 5 4 4 4 4 3 3 3 5 3 4 4 7 7 9 9 9 8 6 5 4 8 11 11 10 9 8 8 7 7 9 12
8 5 5 5 3 4 5 4 3 2 2 3 3 3 3 3 3 2 3 5 4 2 6 6 9 9 9 8 6 6 5 6 10 11 12 10 10 9 8 6 9 11 9
8 7 5 5 5 4 4 5 4 2 3 3 2 2 3 3 3 3 4 3 4 5 6 9 10 9 8 8 4 5 5 8 11 11 11 10 8 8 8 8 9 9 6
11 9 6 4 6 3 4 4 4 4 3 5 4 4 3 6 3 -2 3 9 4 2 7 9 12 9 9 6 3 8 6 9 11 13 12 10 9 7 9 8 7 9 6
9 10 7 2 14 5 3 7 6 3 1 4 5 3 4 0 -5 3 8 6 1 5 9 14 11 8 9 4 5 7 8 10 12 13 10 8 7 6 6 10 11 9 10
-5 -10 7 9 9 1 13 14 -9 -6 3 1 3 4 1 4 -2 4 9 9 7 8 12 12 10 11 6 6 6 4 7 12 13 13 9 8 5 10 14 12 10 12 14
-2 4 5 9 6 4 4 4 11 4 7 5 1 4 7 8 7 12 2 8 11 12 11 9 9 8 7 5 6 5 11 13 13 10 7 4 12 20 13 12 9 16 9
2 -3 -7 -3 1 4 4 4 2 3 1 3 5 5 5 8 5 8 11 11 9 10 10 10 10 5 7 6 7 9 14 13 11 4 5 19 15 13 10 9 16 9 13
8 8 10 10 8 8 5 5 8 5 4 -1 -5 4 7 8 13 12 11 13 12 10 10 12 6 4 5 3 8 11 15 10 2 6 22 10 11 10 13 15 12 9 13
-2 -4 -7 3 12 1 -9 -1 -9 2 20 21 14 14 14 11 9 12 14 13 13 12 12 6 4 3 5 5 10 13 12 3 6 22 7 14 12 12 14 11 10 13 9
21 11 10 12 8 24 5 14 13 7 7 12 5 5 6 7 12 13 12 8 9 8 3 5 5 4 6 6 13 15 12 1 19 10 13 9 13 11 11 12 10 12 10
5 -6 4 12 5 2 9 7 6 7 1 8 9 9 11 13 12 11 6 9 7 8 8 6 5 6 8 11 17 14 0 19 12 13 6 10 9 11 11 10 9 12 11
16 8 1 12 12 13 6 9 17 19 15 11 8 10 11 8 2 10 9 8 11 7 7 6 7 8 13 16 15 -2 18 13 10 6 10 13 11 11 10 10 10 12 10
9 4 0 2 4 1 6 -2 4 -1 7 9 13 7 11 10 8 19 10 14 9 8 7 5 9 8 15 17 -6 20 11 10 9 11 9 9 9 8 8 10 11 11 8
5 14 1 2 6 -1 7 4 0 4 7 6 4 13 14 15 12 16 12 9 8 8 8 6 17 15 10 10 15 11 8 12 9 9 8 7 7 7 8 8 9 8 5
14 13 14 11 15 15 16 16 7 13 20 23 14 10 12 11 14 9 6 9 12 6 11 22 -7 20 8 18 10 8 14 10 8 8 8 6 7 6 7 6 6 7 8
11 13 13 13 12 11 12 17 15 15 17 15 19 20 12 11 5 7 19 18 15 23 11 8 26 13 13 9 6 13 10 9 6 5 8 8 8 8 7 9 9 9 9
11 10 10 8 9 10 11 10 11 12 12 12 11 7 17 11 8 21 14 -9 -0 26 12 13 9 10 20 6 10 10 10 6 5 10 10 10 7 6 8 10 11 11 12
13 13 12 10 11 9 10 12 12 12 14 12 12 13 21 10 6 20 -5 5 -13 12 35 7 16 12 7 8 7 13 10 9 12 12 10 8 6 7 9 9 7 9 10
14 15 14 14 16 17 11 12 15 13 10 11 9 9 11 19 17 4 2 15 28 19 15 13 17 9 6 8 10 12 13 16 13 9 8 6 7 7 7 8 8 7 7
5 4 14 15 15 15 14 17 21 21 20 17 15 15 15 16 22 22 12 20 15 16 14 19 4 6 6 11 10 10 11 8 8 7 8 7 7 6 7 6 6 8 9
13 8 7 7 10 9 8 12 14 13 9 8 5 10 11 21 8 19 21 10 13 25 9 6 6 7 10 11 7 3 11 10 7 7 7 7 8 8 8 6 6 9 11
Height
5870 5871 5872 5872 5873 5873 5873 5873 5872 5872 5871 5870 5869 5868 5867 5865 5864 5862 5859 5857 5854 5851 5848 5845 5841 5838 5835 5830 5826 5822 5819 5816 5814 5810 5806 5802 5799 5796 5793 5791 5790 5788 5786
5866 5867 5868 5869 5869 5869 5869 5869 5869 5868 5867 5867 5866 5864 5863 5861 5859 5858 5855 5852 5849 5846 5843 5838 5835 5832 5829 5825 5821 5817 5814 5811 5808 5804 5800 5796 5793 5790 5788 5785 5784 5783 5781
5861 5862 5864 5864 5864 5864 5864 5864 5864 5864 5864 5862 5861 5860 5858 5857 5855 5853 5851 5849 5845 5841 5838 5833 5830 5826 5822 5818 5815 5811 5807 5804 5800 5797 5794 5791 5787 5784 5782 5779 5777 5776 5774
5855 5857 5858 5858 5859 5859 5859 5859 5859 5859 5858 5858 5857 5855 5854 5853 5850 5847 5845 5843 5840 5836 5832 5829 5825 5822 5818 5812 5808 5805 5801 5798 5794 5789 5786 5784 5781 5777 5775 5773 5771 5769 5767
5848 5851 5851 5852 5853 5853 5853 5853 5853 5852 5852 5851 5851 5850 5848 5847 5844 5841 5839 5836 5834 5831 5827 5822 5819 5816 5811 5807 5803 5800 5796 5791 5787 5783 5779 5775 5773 5771 5769 5767 5765 5763 5761
5842 5843 5844 5846 5846 5846 5846 5846 5846 5846 5845 5845 5845 5843 5842 5840 5838 5835 5832 5829 5826 5823 5819 5815 5812 5807 5804 5800 5797 5794 5790 5785 5780 5776 5772 5769 5766 5763 5761 5760 5757 5755 5754
5834 5835 5837 5838 5838 5838 5839 5839 5839 5839 5839 5838 5838 5837 5835 5833 5830 5827 5824 5821 5818 5815 5811 5808 5804 5800 5796 5792 5790 5786 5782 5777 5773 5769 5765 5762 5759 5756 5754 5751 5750 5748 5747
5827 5829 5830 5830 5830 5830 5831 5832 5832 5831 5831 5829 5829 5828 5828 5827 5823 5820 5816 5813 5809 5806 5802 5799 5796 5792 5788 5785 5782 5779 5775 5770 5766 5762 5759 5757 5753 5750 5747 5744 5743 5740 5739
5818 5818 5821 5822 5822 5822 5822 5823 5823 5823 5823 5821 5820 5818 5817 5817 5815 5811 5808 5805 5801 5798 5794 5791 5787 5784 5781 5778 5775 5771 5767 5762 5758 5755 5753 5750 5747 5744 5740 5737 5735 5734 5733
5809 5809 5811 5813 5814 5815 5814 5814 5814 5814 5814 5812 5811 5809 5807 5806 5804 5803 5797 5794 5791 5788 5785 5782 5779 5775 5772 5769 5765 5761 5758 5754 5751 5748 5745 5743 5740 5736 5732 5730 5727 5726 5725
5800 5801 5802 5804 5805 5806 5806 5805 5805 5804 5803 5802 5800 5798 5796 5794 5792 5790 5788 5783 5780 5778 5775 5772 5770 5767 5764 5760 5756 5752 5749 5745 5742 5740 5737 5734 5730 5729 5726 5723 5720 5719 5719
5790 5792 5794 5795 5795 5796 5795 5795 5794 5793 5793 5791 5789 5787 5785 5783 5781 5779 5776 5773 5768 5767 5765 5763 5760 5758 5754 5751 5747 5743 5740 5736 5734 5731 5728 5725 5722 5721 5718 5715 5714 5713 5712
5782 5783 5783 5784 5784 5784 5784 5784 5783 5782 5781 5780 5779 5776 5774 5772 5769 5767 5765 5762 5759 5757 5755 5753 5751 5749 5746 5742 5737 5733 5731 5728 5726 5722 5719 5717 5715 5714 5712 5709 5708 5707 5706
5771 5772 5773 5773 5773 5773 5772 5772 5771 5771 5770 5768 5766 5764 5762 5760 5758 5755 5753 5751 5749 5747 5746 5743 5740 5738 5735 5732 5728 5725 5722 5720 5717 5714 5712 5711 5708 5706 5705 5703 5702 5701 5701
5760 5761 5761 5761 5760 5760 5760 5759 5758 5758 5757 5755 5754 5752 5751 5748 5746 5744 5742 5741 5739 5737 5735 5733 5731 5728 5725 5721 5718 5716 5714 5712 5709 5706 5703 5704 5702 5700 5699 5698 5697 5696 5696
5750 5749 5749 5748 5747 5747 5747 5747 5746 5745 5744 5743 5742 5740 5739 5737 5736 5734 5732 5730 5728 5726 5725 5722 5720 5717 5715 5712 5709 5707 5706 5704 5701 5700 5697 5697 5696 5695 5693 5693 5692 5691 5691
5738 5736 5735 5736 5735 5734 5735 5734 5733 5732 5731 5731 5729 5729 5727 5725 5724 5722 5721 5718 5716 5715 5714 5712 5711 5709 5705 5703 5701 5699 5697 5696 5693 5693 5691 5691 5690 5688 5687 5686 5686 5685 5685
5725 5724 5724 5724 5723 5722 5722 5721 5720 5719 5718 5718 5717 5715 5713 5712 5711 5708 5708 5706 5704 5703 5702 5701 5698 5698 5695 5693 5692 5690 5689 5688 5686 5686 5684 5683 5683 5682 5680 5680 5680 5679 5679
5713 5712 5711 5711 5710 5708 5708 5707 5707 5705 5704 5703 5702 5701 5699 5698 5697 5695 5694 5693 5692 5691 5690 5689 5688 5687 5686 5683 5683 5682 5680 5678 5678 5678 5677 5676 5675 5675 5674 5674 5674 5673 5673
5701 5700 5699 5699 5697 5696 5694 5694 5693 5691 5690 5689 5687 5686 5685 5685 5684 5682 5681 5680 5680 5679 5678 5678 5677 5677 5675 5674 5675 5675 5672 5671 5671 5671 5670 5669 5669 5668 5668 5667 5666 5666 5665
5690 5689 5688 5686 5685 5684 5683 5681 5679 5678 5677 5675 5673 5672 5672 5671 5670 5668 5667 5668 5668 5667 5666 5666 5666 5665 5665 5667 5667 5667 5665 5663 5663 5663 5663 5662 5662 5662 5660 5660 5659 5658 5657
5679 5678 5676 5675 5674 5672 5671 5669 5667 5666 5665 5663 5662 5660 5659 5658 5657 5654 5654 5655 5656 5655 5654 5655 5655 5654 5655 5657 5657 5658 5657 5656 5655 5654 5654 5655 5654 5653 5653 5652 5651 5650 5649
5667 5666 5665 5664 5663 5661 5660 5657 5656 5654 5653 5652 5650 5649 5647 5646 5646 5645 5645 5645 5645 5645 5643 5645 5644 5645 5646 5648 5648 5648 5647 5646 5646 5646 5646 5647 5646 5645 5645 5644 5643 5642 5641
5657 5656 5655 5653 5652 5650 5648 5646 5644 5642 5641 5640 5638 5637 5636 5634 5633 5633 5633 5634 5633 5633 5634 5634 5635 5637 5638 5639 5639 5638 5638 5637 5637 5638 5638 5638 5638 5637 5636 5635 5634 5633 5632
5647 5646 5645 5643 5642 5640 5638 5635 5633 5631 5630 5629 5628 5627 5625 5624 5623 5623 5623 5623 5623 5623 5624 5626 5628 5629 5630 5630 5630 5630 5630 5629 5629 5629 5629 5629 5629 5628 5627 5626 5625 5624 5622
5637 5636 5635 5633 5632 5630 5628 5626 5624 5622 5621 5620 5619 5618 5617 5616 5616 5615 5614 5615 5616 5616 5617 5619 5620 5621 5622 5622 5622 5621 5621 5621 5620 5620 5620 5619 5619 5619 5617 5616 5614 5613 5611